User: anonymous   Login
Location: Unspecified
(0.0000°N, 0.0000°E)
Time: 06:32:25
(UTC+00:00)
Language:

Altair - Orbit

View from above orbital plane
View from above orbital plane
View from above satellite
View from above satellite

Ground track
Ground track

The orbit data is extracted from the following two-line orbital elements,

1 00050U 60009B   15110.43247886 -.00000059  00000-0  25519-3 0  9990
2 00050 047.2303 211.6558 0113602 108.2404 253.0787 12.20091725440533
Epoch (UTC): 20 April 2015 10:22:46
Eccentricity: 0.0113602
inclination: 47.2303°
perigee height: 1501 km
apogee height: 1682 km
right ascension of ascending node: 211.6558°
argument of perigee: 108.2404°
revolutions per day: 12.20091725
mean anomaly at epoch: 253.0787°
orbit number at epoch: 44053

The dashed part of the orbit path shows where the satellite is in the earth's shadow,  

DLR